Valdosta, GA

10:49 AM EST on February 19, 2017 (GMT -0500)
Valdosta Regional

Weather History for KVLD - January, 2013

Change the Weather History Date:

Friday, January 18, 2013

  Actual Average Record
Temperature  
Mean Temperature 53 °F 50 °F  
Max Temperature 63 °F 62 °F 79 °F (2017)
Min Temperature 43 °F 38 °F 32 °F (2016)
Degree Days  
Heating Degree Days 12 15  
Month to date heating degree days 101 270  
Since 1 July heating degree days 542 883  
Growing Degree Days 2 (Base 50)    
Moisture  
Dew Point 32 °F    
Average Humidity 54    
Maximum Humidity 82    
Minimum Humidity 25    
Precipitation  
Precipitation 0.00 in 0.09 in 0.00 in (2017)
Month to date precipitation 0.22 2.83  
Year to date precipitation 0.22 2.83  
Sea Level Pressure  
Sea Level Pressure 30.39 in    
Wind  
Wind Speed 8 mph (NE)    
Max Wind Speed 22 mph    
Max Gust Speed 25 mph    
Visibility 10 miles    
Events      
T = Trace of Precipitation, MM = Missing Value Source: NWS Daily Summary

Daily Weather History Graph

Daily Weather History Graph

Search for Another Location

Airport or City:

Trip Planner

Search our weather history database for the weather conditions in past years. The results will help you decide how hot, cold, wet, or windy it might be!

Date:

Astronomy

Jan. 18, 2013 Rise Set
Actual Time 7:30 AM EST 5:56 PM EST
Civil Twilight 7:04 AM EST 6:22 PM EST
Nautical Twilight 6:35 AM EST 6:52 PM EST
Astronomical Twilight 6:06 AM EST 7:21 PM EST
Moon 11:42 AM EST (1/18) 12:14 AM EST (1/18)
Length of Visible Light 11h 18m
Length of Day
10h 26m
Waxing Crescent, 47% of the Moon is Illuminated
Jan 18
Waxing Crescent
Jan 18
First Quarter
Jan 26
Full
Feb 3
Last Quarter
Feb 10
New

Hourly Weather History & Observations

Time (EST) Temp. Windchill Dew Point Humidity Pressure Visibility Wind Dir Wind Speed Gust Speed Precip Events Conditions
12:53 AM 45.0 °F 43.5 °F 34.0 °F 65% 30.24 in 10.0 mi Variable 3.5 mph - N/A   Overcast
1:53 AM 46.0 °F - 35.1 °F 66% 30.26 in 10.0 mi Calm Calm - N/A   Overcast
2:53 AM 45.0 °F - 35.1 °F 68% 30.27 in 10.0 mi Calm Calm - N/A   Mostly Cloudy
3:03 AM 44.6 °F - 35.6 °F 71% 30.25 in 10.0 mi Calm Calm - N/A   Partly Cloudy
3:53 AM 43.0 °F - 35.1 °F 74% 30.30 in 10.0 mi Calm Calm - N/A   Partly Cloudy
4:53 AM 44.1 °F 38.1 °F 36.0 °F 73% 30.31 in 10.0 mi North 11.5 mph - N/A   Clear
5:53 AM 43.0 °F 36.4 °F 37.0 °F 80% 30.33 in 10.0 mi North 12.7 mph - N/A   Clear
6:53 AM 43.0 °F 37.2 °F 37.0 °F 80% 30.36 in 10.0 mi North 10.4 mph - N/A   Clear
7:53 AM 44.1 °F 38.1 °F 37.0 °F 76% 30.39 in 10.0 mi NNE 11.5 mph - N/A   Clear
8:53 AM 46.0 °F 41.4 °F 36.0 °F 68% 30.42 in 10.0 mi NE 9.2 mph 18.4 mph N/A   Clear
9:53 AM 51.1 °F - 35.1 °F 54% 30.45 in 10.0 mi NE 15.0 mph 23.0 mph N/A   Partly Cloudy
10:53 AM 54.0 °F - 33.1 °F 45% 30.45 in 10.0 mi NE 11.5 mph 19.6 mph N/A   Partly Cloudy
11:53 AM 57.0 °F - 30.0 °F 36% 30.45 in 10.0 mi NNE 13.8 mph 18.4 mph N/A   Partly Cloudy
12:53 PM 59.0 °F - 30.0 °F 33% 30.43 in 10.0 mi ENE 8.1 mph - N/A   Partly Cloudy
1:53 PM 61.0 °F - 27.0 °F 27% 30.41 in 10.0 mi NE 15.0 mph 21.9 mph N/A   Partly Cloudy
2:53 PM 62.1 °F - 27.0 °F 26% 30.41 in 10.0 mi East 11.5 mph - N/A   Partly Cloudy
3:53 PM 62.1 °F - 26.1 °F 25% 30.41 in 10.0 mi NE 11.5 mph 19.6 mph N/A   Clear
4:53 PM 60.1 °F - 26.1 °F 27% 30.42 in 10.0 mi NE 11.5 mph 16.1 mph N/A   Partly Cloudy
5:53 PM 55.9 °F - 27.0 °F 33% 30.44 in 10.0 mi ENE 4.6 mph - N/A   Partly Cloudy
6:53 PM 48.9 °F - 30.9 °F 50% 30.45 in 10.0 mi Calm Calm - N/A   Partly Cloudy
7:53 PM 43.0 °F - 30.9 °F 62% 30.47 in 10.0 mi Calm Calm - N/A   Clear
8:53 PM 48.0 °F - 28.9 °F 48% 30.48 in 10.0 mi ENE 4.6 mph - N/A   Clear
9:53 PM 46.9 °F - 28.0 °F 48% 30.47 in 10.0 mi ENE 6.9 mph - N/A   Clear
10:53 PM 46.0 °F 43.1 °F 28.9 °F 51% 30.46 in 10.0 mi NE 5.8 mph - N/A   Clear
11:53 PM 44.1 °F 41.5 °F 28.9 °F 55% 30.44 in 10.0 mi NNE 4.6 mph - N/A   Clear